QPF
0.00 0.00 0.00 0.00 0.00 0.00 0.00 0.00 0.00 0.00 0.00 0.00 0.00 0.00 0.00 0.00 0.00 0.00 0.00 0.00 0.00 0.00 0.00 0.00 0.00 0.00 0.01 0.02 0.01 0.00 0.00 0.00 0.00 0.00 0.00 0.00 0.00 0.00 0.00 0.00 0.00 0.00 0.00
0.00 0.00 0.00 0.00 0.00 0.00 0.00 0.00 0.00 0.00 0.00 0.00 0.00 0.00 0.00 0.00 0.00 0.00 0.00 0.00 0.00 0.00 0.00 0.00 0.00 0.00 0.00 0.00 0.00 0.00 0.00 0.00 0.00 0.00 0.00 0.00 0.00 0.00 0.00 0.00 0.00 0.00 0.00
0.00 0.00 0.00 0.00 0.00 0.00 0.00 0.00 0.00 0.00 0.00 0.00 0.00 0.00 0.00 0.00 0.00 0.00 0.00 0.00 0.00 0.00 0.00 0.00 0.00 0.00 0.00 0.00 0.00 0.00 0.00 0.00 0.00 0.00 0.00 0.00 0.00 0.00 0.00 0.00 0.00 0.00 0.00
0.00 0.00 0.00 0.00 0.00 0.00 0.00 0.00 0.00 0.00 0.00 0.00 0.00 0.00 0.00 0.00 0.00 0.00 0.00 0.00 0.00 0.00 0.00 0.00 0.00 0.00 0.00 0.00 0.00 0.00 0.00 0.00 0.01 0.01 0.00 0.00 0.00 0.00 0.00 0.00 0.00 0.00 0.00
0.00 0.00 0.00 0.00 0.00 0.00 0.00 0.00 0.00 0.00 0.00 0.00 0.00 0.00 0.00 0.00 0.00 0.00 0.00 0.00 0.00 0.00 0.00 0.00 0.00 0.00 0.00 0.00 0.00 0.00 0.00 0.01 0.02 0.01 0.01 0.00 0.00 0.00 0.00 0.00 0.00 0.00 0.00
0.00 0.00 0.00 0.00 0.00 0.00 0.00 0.00 0.00 0.00 0.00 0.00 0.00 0.00 0.00 0.00 0.00 0.00 0.00 0.00 0.00 0.00 0.01 0.01 0.02 0.02 0.03 0.01 0.01 0.01 0.01 0.01 0.00 0.01 0.00 0.00 0.00 0.00 0.00 0.00 0.00 0.00 0.00
0.00 0.00 0.00 0.00 0.00 0.00 0.00 0.00 0.00 0.00 0.01 0.01 0.00 0.00 0.01 0.00 0.00 0.00 0.00 0.00 0.00 0.01 0.02 0.04 0.02 0.01 0.01 0.02 0.02 0.01 0.01 0.00 0.00 0.01 0.03 0.03 0.02 0.01 0.00 0.00 0.00 0.00 0.00
0.00 0.00 0.00 0.00 0.00 0.00 0.00 0.00 0.00 0.01 0.02 0.04 0.02 0.02 0.02 0.00 0.00 0.00 0.00 0.02 0.02 0.03 0.04 0.02 0.01 0.01 0.01 0.01 0.00 0.00 0.00 0.01 0.00 0.00 0.01 0.01 0.01 0.00 0.00 0.00 0.00 0.00 0.00
0.00 0.00 0.00 0.00 0.00 0.00 0.00 0.00 0.00 0.00 0.00 0.02 0.02 0.03 0.02 0.01 0.00 0.00 0.00 0.01 0.01 0.01 0.01 0.01 0.02 0.03 0.00 0.01 0.01 0.01 0.01 0.00 0.00 0.00 0.00 0.00 0.00 0.00 0.00 0.00 0.00 0.00 0.00
0.00 0.00 0.00 0.00 0.00 0.00 0.00 0.00 0.00 0.00 0.00 0.00 0.00 0.01 0.01 0.01 0.00 0.00 0.00 0.02 0.03 0.03 0.02 0.01 0.01 0.02 0.01 0.00 0.00 0.01 0.01 0.02 0.02 0.00 0.00 0.00 0.00 0.00 0.00 0.00 0.00 0.00 0.00
0.00 0.00 0.00 0.01 0.00 0.01 0.00 0.00 0.00 0.00 0.00 0.00 0.00 0.01 0.01 0.01 0.00 0.00 0.00 0.00 0.01 0.01 0.00 0.00 0.00 0.00 0.00 0.00 0.00 0.00 0.00 0.01 0.01 0.01 0.00 0.00 0.00 0.00 0.00 0.00 0.00 0.00 0.00
0.00 0.00 0.00 0.00 0.00 0.01 0.02 0.01 0.01 0.01 0.02 0.03 0.03 0.02 0.00 0.00 0.00 0.00 0.00 0.00 0.00 0.00 0.01 0.03 0.04 0.00 0.00 0.00 0.00 0.00 0.00 0.00 0.00 0.00 0.00 0.00 0.00 0.00 0.00 0.00 0.00 0.00 0.00
0.00 0.00 0.00 0.00 0.00 0.00 0.01 0.04 0.04 0.02 0.02 0.02 0.01 0.01 0.00 0.00 0.00 0.00 0.00 0.00 0.00 0.00 0.00 0.04 0.02 0.00 0.00 0.00 0.00 0.00 0.00 0.00 0.00 0.00 0.00 0.00 0.00 0.00 0.00 0.00 0.00 0.00 0.00
0.00 0.01 0.00 0.00 0.00 0.00 0.01 0.02 0.04 0.03 0.05 0.04 0.03 0.02 0.02 0.01 0.00 0.00 0.00 0.00 0.00 0.00 0.00 0.00 0.00 0.00 0.00 0.00 0.00 0.00 0.00 0.00 0.00 0.00 0.00 0.00 0.00 0.00 0.00 0.00 0.00 0.00 0.00
0.00 0.01 0.01 0.01 0.01 0.00 0.00 0.00 0.01 0.02 0.05 0.02 0.03 0.04 0.03 0.03 0.05 0.03 0.01 0.00 0.00 0.00 0.00 0.00 0.00 0.00 0.00 0.00 0.00 0.00 0.00 0.00 0.00 0.00 0.00 0.00 0.00 0.00 0.00 0.00 0.00 0.00 0.00
0.01 0.01 0.02 0.01 0.02 0.00 0.00 0.00 0.00 0.01 0.01 0.01 0.02 0.07 0.08 0.06 0.07 0.02 0.00 0.00 0.00 0.00 0.00 0.00 0.00 0.00 0.00 0.00 0.00 0.00 0.00 0.00 0.00 0.00 0.00 0.00 0.00 0.00 0.00 0.00 0.00 0.00 0.00
0.00 0.01 0.00 0.00 0.00 0.00 0.00 0.00 0.00 0.00 0.00 0.00 0.00 0.00 0.02 0.00 0.00 0.00 0.00 0.00 0.00 0.00 0.00 0.00 0.00 0.00 0.00 0.00 0.00 0.00 0.00 0.00 0.00 0.00 0.00 0.00 0.00 0.00 0.00 0.00 0.00 0.00 0.00
0.00 0.00 0.00 0.00 0.00 0.00 0.00 0.00 0.00 0.00 0.00 0.00 0.00 0.00 0.00 0.00 0.00 0.00 0.00 0.00 0.00 0.00 0.00 0.00 0.00 0.00 0.00 0.00 0.00 0.00 0.00 0.00 0.00 0.00 0.00 0.00 0.00 0.00 0.00 0.00 0.00 0.00 0.00
0.00 0.00 0.00 0.00 0.00 0.00 0.00 0.00 0.00 0.00 0.00 0.00 0.00 0.01 0.00 0.00 0.00 0.00 0.00 0.00 0.00 0.00 0.00 0.00 0.00 0.00 0.00 0.00 0.00 0.00 0.00 0.00 0.00 0.00 0.00 0.00 0.00 0.00 0.00 0.00 0.00 0.00 0.00
0.00 0.00 0.00 0.00 0.00 0.00 0.00 0.00 0.00 0.00 0.00 0.00 0.00 0.00 0.00 0.00 0.00 0.00 0.00 0.00 0.00 0.00 0.00 0.00 0.00 0.00 0.00 0.00 0.00 0.00 0.00 0.00 0.00 0.00 0.00 0.00 0.00 0.00 0.00 0.00 0.00 0.00 0.00
0.00 0.00 0.00 0.00 0.00 0.00 0.00 0.00 0.00 0.00 0.00 0.00 0.00 0.00 0.00 0.00 0.00 0.00 0.00 0.00 0.00 0.00 0.00 0.00 0.00 0.00 0.00 0.00 0.00 0.00 0.00 0.00 0.00 0.00 0.00 0.00 0.00 0.00 0.00 0.00 0.00 0.00 0.00
0.00 0.00 0.00 0.00 0.00 0.00 0.00 0.00 0.00 0.00 0.00 0.00 0.00 0.00 0.00 0.00 0.00 0.00 0.00 0.00 0.00 0.00 0.00 0.00 0.00 0.00 0.00 0.00 0.00 0.00 0.00 0.00 0.00 0.00 0.00 0.00 0.00 0.00 0.00 0.00 0.00 0.00 0.00
0.02 0.01 0.00 0.00 0.00 0.00 0.00 0.00 0.00 0.00 0.00 0.00 0.00 0.00 0.00 0.00 0.00 0.00 0.00 0.00 0.00 0.00 0.00 0.00 0.00 0.00 0.00 0.00 0.00 0.00 0.00 0.00 0.00 0.00 0.00 0.00 0.00 0.00 0.00 0.00 0.00 0.00 0.00
0.06 0.05 0.04 0.03 0.03 0.04 0.02 0.01 0.00 0.00 0.00 0.00 0.00 0.00 0.00 0.00 0.00 0.00 0.00 0.00 0.00 0.00 0.00 0.00 0.00 0.00 0.00 0.00 0.00 0.00 0.00 0.00 0.00 0.00 0.00 0.00 0.00 0.00 0.00 0.00 0.00 0.00 0.00
0.02 0.03 0.04 0.05 0.06 0.06 0.05 0.03 0.02 0.00 0.00 0.00 0.01 0.00 0.00 0.00 0.00 0.00 0.01 0.00 0.01 0.00 0.00 0.00 0.00 0.00 0.00 0.00 0.00 0.00 0.00 0.00 0.00 0.00 0.00 0.00 0.00 0.00 0.00 0.00 0.00 0.00 0.00
0.00 0.00 0.00 0.01 0.03 0.04 0.04 0.03 0.03 0.03 0.03 0.04 0.03 0.02 0.01 0.01 0.02 0.02 0.01 0.00 0.00 0.00 0.00 0.00 0.00 0.00 0.00 0.00 0.00 0.00 0.00 0.00 0.00 0.00 0.00 0.00 0.00 0.00 0.00 0.00 0.00 0.00 0.00
MSLP
1016.63 1016.88 1017.04 1017.19 1017.34 1017.58 1017.82 1017.88 1017.95 1018.12 1018.11 1017.97 1017.89 1017.79 1018.23 1017.93 1017.69 1018.00 1017.90 1018.11 1018.24 1017.89 1018.06 1017.63 1017.75 1017.34 1017.29 1017.42 1018.22 1017.15 1018.34 1018.29 1019.64 1019.85 1020.26 1021.49 1022.52 1023.06 1023.58 1024.59 1025.49 1025.83 1025.74
1017.03 1017.32 1017.55 1017.57 1017.62 1017.79 1017.94 1018.05 1018.12 1018.29 1018.41 1018.47 1018.65 1018.75 1018.74 1018.66 1018.49 1018.23 1018.20 1018.64 1018.53 1018.55 1018.31 1018.61 1018.46 1017.89 1017.88 1017.99 1018.25 1018.18 1019.10 1018.85 1020.07 1020.79 1021.58 1021.58 1022.52 1023.66 1023.71 1023.96 1024.61 1024.90 1025.32
1016.86 1017.30 1017.67 1017.82 1017.96 1018.01 1018.01 1018.17 1018.15 1018.22 1018.42 1018.55 1018.69 1018.80 1018.87 1018.85 1018.86 1018.79 1019.02 1019.24 1019.12 1018.75 1018.75 1018.93 1019.04 1018.88 1018.58 1018.54 1018.89 1018.56 1018.76 1019.65 1020.65 1022.15 1023.09 1023.17 1023.30 1023.23 1024.22 1024.07 1024.31 1024.67 1024.38
1016.26 1016.92 1017.56 1018.01 1018.21 1018.33 1018.38 1018.48 1018.62 1018.60 1018.62 1018.78 1019.02 1019.02 1019.07 1019.13 1019.17 1019.37 1019.48 1019.51 1019.22 1019.12 1019.12 1019.29 1019.51 1019.66 1019.84 1019.30 1019.75 1019.89 1019.51 1020.00 1020.71 1023.23 1023.54 1023.94 1023.34 1023.63 1024.56 1024.64 1024.52 1024.63 1024.25
1016.38 1016.77 1017.17 1017.68 1018.15 1018.53 1018.56 1018.47 1018.64 1018.75 1018.99 1019.07 1019.34 1019.54 1019.53 1019.51 1019.62 1019.71 1019.63 1019.75 1019.42 1019.37 1019.31 1019.35 1019.43 1019.84 1020.06 1020.19 1020.30 1020.73 1020.80 1021.07 1021.65 1022.83 1023.61 1023.33 1023.45 1023.73 1024.32 1024.18 1024.12 1023.99 1023.49
1016.84 1017.10 1017.66 1018.04 1018.12 1018.26 1018.46 1018.60 1018.76 1018.92 1018.83 1019.15 1019.31 1019.59 1019.75 1019.60 1019.86 1019.85 1019.85 1019.77 1019.57 1019.66 1019.43 1019.47 1019.57 1019.79 1019.92 1020.37 1020.57 1020.74 1021.26 1021.84 1022.21 1022.34 1022.80 1023.04 1023.36 1023.30 1023.39 1023.46 1023.37 1023.12 1023.16
1016.97 1017.56 1017.83 1018.17 1018.21 1018.40 1018.57 1018.75 1018.83 1018.93 1018.99 1018.81 1019.08 1019.35 1019.35 1019.37 1019.87 1019.99 1019.91 1019.82 1019.77 1019.66 1019.59 1019.56 1019.59 1019.70 1019.96 1020.34 1020.74 1021.09 1021.40 1021.40 1021.56 1021.78 1022.52 1022.67 1022.18 1022.17 1022.37 1022.56 1022.73 1022.79 1023.03
1017.15 1017.60 1017.87 1018.04 1018.05 1018.39 1018.69 1018.80 1018.83 1018.84 1018.78 1018.73 1018.83 1018.80 1019.08 1019.34 1019.82 1020.11 1020.17 1019.92 1019.77 1019.71 1019.71 1019.61 1019.67 1019.89 1020.23 1020.65 1020.91 1021.44 1021.62 1021.42 1021.56 1021.94 1021.91 1021.97 1021.94 1022.19 1022.36 1022.13 1022.33 1022.53 1022.66
1016.85 1017.26 1017.63 1017.79 1018.01 1018.18 1018.36 1018.67 1018.95 1018.83 1018.91 1018.41 1018.51 1018.93 1019.09 1019.28 1019.75 1020.05 1020.14 1019.95 1019.93 1019.91 1019.92 1019.88 1020.28 1020.53 1020.58 1020.86 1021.07 1021.28 1021.26 1021.00 1020.79 1021.17 1021.25 1021.63 1021.78 1021.99 1022.23 1022.42 1022.51 1022.64 1022.48
1016.52 1016.87 1017.40 1017.63 1017.93 1018.10 1017.98 1018.41 1018.87 1018.96 1019.03 1019.14 1019.15 1019.07 1019.40 1019.30 1019.75 1019.91 1020.26 1020.19 1020.09 1019.99 1020.23 1020.39 1020.49 1020.42 1020.52 1020.78 1021.15 1021.02 1021.24 1021.04 1020.93 1020.97 1021.33 1021.59 1021.65 1021.74 1021.78 1022.00 1022.25 1022.57 1022.55
1016.20 1016.61 1016.75 1017.25 1017.66 1017.93 1017.95 1018.33 1018.68 1018.80 1019.06 1019.18 1019.15 1019.17 1019.43 1019.49 1019.68 1019.78 1019.89 1020.41 1020.43 1020.21 1019.83 1020.06 1020.14 1020.20 1020.61 1020.72 1020.86 1020.92 1020.96 1020.88 1020.91 1020.76 1020.64 1020.98 1021.09 1021.20 1021.15 1021.31 1021.48 1021.76 1021.74
1015.76 1015.95 1016.24 1016.80 1017.11 1017.22 1017.56 1018.03 1018.35 1018.75 1018.72 1018.80 1019.02 1019.21 1019.24 1019.29 1019.43 1019.58 1019.70 1019.78 1019.84 1019.84 1019.69 1019.65 1019.74 1019.95 1020.11 1020.35 1020.65 1020.80 1020.90 1020.92 1020.87 1020.72 1020.55 1020.45 1020.38 1020.30 1020.17 1020.14 1020.37 1020.47 1020.22
1014.92 1015.42 1015.91 1016.33 1016.44 1016.68 1016.99 1017.47 1017.82 1018.14 1018.37 1018.32 1018.34 1018.53 1018.43 1018.52 1018.72 1019.04 1019.38 1019.56 1019.73 1019.91 1019.79 1019.78 1019.75 1019.65 1019.65 1019.81 1020.02 1020.28 1020.58 1020.62 1020.67 1020.62 1020.28 1019.99 1019.82 1019.55 1019.06 1018.90 1018.85 1018.93 1019.12
1014.39 1014.76 1015.31 1015.71 1015.88 1016.09 1016.27 1016.56 1016.94 1017.18 1017.32 1017.37 1017.39 1017.54 1017.75 1017.91 1018.11 1018.35 1018.71 1018.99 1019.21 1019.35 1019.45 1019.50 1019.47 1019.53 1019.41 1019.25 1019.45 1019.69 1020.01 1020.04 1020.04 1019.95 1019.67 1019.37 1019.06 1018.80 1018.62 1018.52 1018.54 1018.41 1018.24
1013.73 1014.24 1014.50 1014.78 1015.12 1015.28 1015.48 1015.63 1015.94 1016.20 1016.67 1016.92 1017.27 1017.59 1017.51 1017.65 1017.48 1017.67 1017.87 1018.13 1018.38 1018.39 1018.64 1018.78 1018.56 1018.58 1018.64 1018.61 1018.61 1018.65 1018.93 1019.09 1019.14 1019.04 1019.01 1018.83 1018.53 1018.20 1018.01 1017.76 1017.56 1017.42 1017.37
1012.67 1013.26 1013.60 1013.82 1013.99 1014.21 1014.12 1014.31 1014.62 1014.83 1015.38 1015.90 1016.16 1016.87 1017.33 1017.19 1016.82 1016.84 1016.99 1017.26 1017.34 1017.41 1017.79 1017.69 1017.34 1017.22 1017.13 1017.20 1017.27 1017.38 1017.44 1017.50 1017.58 1017.61 1017.61 1017.46 1017.33 1017.17 1017.00 1016.82 1016.75 1016.89 1016.87
1011.92 1012.31 1012.54 1012.85 1013.02 1013.05 1013.26 1013.22 1013.54 1014.40 1014.48 1014.86 1015.19 1015.60 1016.20 1016.22 1016.26 1016.03 1016.27 1016.73 1016.86 1016.96 1016.86 1016.68 1016.41 1016.14 1016.05 1015.90 1015.85 1015.83 1015.88 1015.97 1015.98 1016.20 1016.20 1016.22 1016.13 1016.24 1016.34 1016.64 1016.73 1016.68 1016.55
1010.93 1011.25 1011.53 1011.43 1011.49 1011.63 1011.99 1012.13 1012.35 1012.92 1013.62 1014.27 1014.67 1014.98 1015.26 1015.40 1015.55 1015.72 1015.98 1016.49 1016.85 1016.77 1016.26 1015.87 1015.65 1015.53 1015.35 1015.02 1014.75 1014.66 1014.68 1014.68 1014.70 1014.77 1014.94 1015.07 1015.30 1015.75 1016.00 1016.18 1016.31 1016.53 1016.84
1009.81 1010.29 1010.54 1010.58 1010.69 1010.77 1010.65 1010.85 1011.15 1011.54 1011.74 1011.89 1012.40 1013.77 1014.16 1014.71 1015.35 1015.69 1015.78 1015.48 1015.35 1015.09 1014.97 1014.99 1014.93 1014.66 1014.34 1014.04 1013.83 1013.71 1013.69 1013.72 1013.85 1014.14 1014.46 1014.80 1015.30 1015.65 1016.02 1016.31 1016.47 1016.66 1016.72
1008.39 1008.82 1009.09 1009.33 1009.51 1009.78 1009.84 1009.81 1010.00 1010.32 1010.55 1010.57 1010.81 1011.63 1012.56 1014.44 1015.09 1015.14 1014.98 1014.64 1014.27 1013.87 1013.47 1013.25 1013.39 1013.56 1013.50 1013.35 1013.18 1013.07 1012.93 1012.93 1013.63 1014.12 1014.61 1015.03 1015.58 1016.06 1016.61 1016.83 1016.97 1016.90 1016.84
1007.39 1007.80 1008.18 1008.60 1008.67 1008.69 1008.68 1008.77 1008.85 1008.91 1009.11 1009.21 1009.30 1009.23 1010.19 1011.56 1012.22 1012.76 1012.89 1013.09 1012.99 1012.80 1012.57 1012.37 1012.18 1012.08 1012.20 1012.28 1011.88 1012.33 1013.09 1013.76 1014.23 1014.56 1014.83 1015.48 1015.89 1016.44 1016.57 1016.76 1017.01 1016.94 1016.67
1007.17 1007.54 1007.62 1007.87 1008.25 1008.18 1008.04 1008.04 1008.25 1008.19 1008.21 1008.29 1008.34 1008.53 1009.26 1009.97 1010.34 1010.69 1010.85 1010.95 1011.13 1011.18 1011.27 1011.27 1011.34 1011.42 1011.01 1011.63 1012.18 1012.76 1013.42 1013.97 1014.49 1014.96 1015.44 1015.92 1016.31 1016.50 1016.72 1016.84 1016.77 1016.58 1016.24
1007.83 1006.71 1006.53 1006.82 1007.13 1007.63 1007.58 1007.49 1007.44 1007.36 1007.63 1007.69 1007.78 1008.07 1008.90 1008.95 1008.76 1009.01 1008.96 1008.86 1009.25 1009.66 1010.14 1010.34 1010.13 1010.72 1011.76 1012.32 1012.72 1013.22 1013.82 1014.49 1015.03 1015.39 1015.73 1016.00 1016.22 1016.41 1016.58 1016.58 1016.28 1015.95 1015.54
1009.76 1008.38 1008.02 1008.19 1008.15 1007.32 1007.16 1007.08 1007.25 1007.28 1007.49 1007.75 1007.21 1007.38 1007.28 1007.77 1007.57 1007.54 1007.67 1007.87 1008.55 1008.66 1009.03 1010.32 1010.55 1010.95 1012.06 1012.86 1013.27 1013.64 1014.53 1015.14 1015.15 1015.48 1016.05 1016.24 1016.29 1016.26 1016.21 1016.11 1015.77 1015.16 1014.69
1010.80 1010.48 1010.55 1010.37 1009.29 1007.96 1007.83 1007.53 1007.71 1007.82 1007.36 1007.81 1008.07 1006.95 1006.97 1007.70 1006.31 1006.29 1007.18 1007.92 1008.80 1010.29 1010.51 1011.04 1012.03 1012.64 1012.77 1013.37 1014.02 1014.81 1015.43 1015.76 1016.04 1016.42 1016.35 1016.21 1016.16 1015.94 1015.64 1015.15 1014.76 1014.46 1014.02
1011.93 1011.88 1011.66 1011.38 1010.64 1009.68 1009.36 1009.10 1008.68 1008.10 1007.95 1008.40 1008.66 1008.82 1008.19 1007.49 1007.38 1007.42 1008.05 1008.67 1009.66 1010.93 1011.35 1011.73 1011.99 1013.35 1013.84 1014.97 1015.43 1015.64 1015.95 1016.27 1016.51 1016.85 1016.79 1016.35 1015.97 1015.51 1014.97 1014.53 1014.19 1013.91 1013.70
Thickness
5616 5613 5611 5608 5603 5597 5589 5583 5581 5579 5580 5583 5585 5588 5588 5594 5600 5599 5605 5604 5606 5610 5609 5614 5615 5623 5627 5629 5624 5635 5625 5627 5610 5610 5607 5601 5595 5592 5586 5581 5573 5570 5572
5601 5597 5593 5591 5588 5582 5575 5569 5563 5559 5558 5558 5558 5558 5562 5567 5573 5580 5586 5586 5589 5590 5595 5594 5595 5601 5604 5608 5609 5610 5601 5605 5595 5588 5580 5582 5577 5570 5570 5569 5564 5561 5559
5591 5586 5580 5576 5572 5567 5562 5554 5549 5543 5536 5534 5536 5537 5539 5543 5550 5556 5560 5563 5568 5574 5576 5578 5577 5580 5586 5587 5584 5591 5588 5580 5571 5559 5552 5550 5556 5558 5548 5552 5551 5548 5550
5584 5575 5566 5559 5553 5548 5542 5535 5527 5521 5516 5512 5511 5513 5516 5520 5526 5531 5537 5542 5548 5553 5557 5558 5558 5559 5559 5566 5562 5562 5564 5560 5559 5534 5532 5531 5540 5540 5531 5531 5534 5536 5538
5571 5564 5557 5546 5535 5526 5519 5515 5509 5503 5496 5493 5489 5489 5492 5497 5501 5507 5516 5521 5529 5534 5538 5541 5543 5541 5541 5543 5543 5538 5537 5537 5535 5524 5519 5524 5524 5521 5517 5520 5521 5523 5527
5553 5546 5535 5525 5518 5510 5502 5498 5493 5489 5485 5481 5478 5476 5477 5482 5483 5489 5495 5503 5511 5516 5522 5525 5526 5524 5525 5521 5523 5523 5517 5513 5510 5512 5514 5511 5508 5512 5512 5510 5511 5516 5513
5540 5528 5518 5506 5498 5492 5486 5482 5480 5477 5474 5475 5471 5468 5470 5472 5469 5473 5479 5486 5492 5498 5504 5509 5511 5512 5511 5507 5505 5503 5502 5503 5503 5503 5498 5498 5505 5507 5506 5506 5505 5505 5500
5527 5515 5505 5493 5487 5478 5473 5469 5468 5467 5467 5467 5464 5462 5463 5462 5459 5460 5464 5471 5476 5482 5488 5494 5495 5495 5495 5494 5492 5488 5486 5490 5491 5489 5490 5492 5494 5494 5493 5495 5496 5495 5494
5520 5509 5496 5486 5478 5472 5467 5462 5458 5459 5457 5461 5460 5455 5454 5454 5451 5450 5452 5457 5461 5466 5471 5477 5478 5478 5479 5480 5479 5479 5479 5481 5483 5482 5485 5485 5485 5485 5484 5483 5485 5487 5490
5515 5504 5491 5481 5471 5464 5464 5457 5451 5450 5449 5448 5447 5447 5444 5446 5443 5443 5442 5445 5451 5456 5456 5460 5462 5466 5469 5470 5468 5471 5471 5473 5475 5476 5475 5476 5478 5480 5482 5484 5484 5483 5482
5511 5500 5491 5479 5469 5462 5460 5453 5448 5446 5443 5442 5441 5441 5438 5438 5437 5436 5437 5435 5438 5444 5451 5452 5455 5457 5457 5459 5461 5463 5464 5467 5468 5471 5475 5476 5479 5481 5484 5485 5484 5482 5480
5509 5501 5492 5482 5472 5466 5457 5452 5448 5443 5441 5440 5439 5435 5434 5434 5432 5430 5431 5433 5436 5439 5445 5448 5451 5452 5453 5455 5455 5456 5459 5462 5465 5470 5476 5480 5482 5485 5487 5487 5485 5485 5485
5512 5502 5492 5484 5479 5471 5463 5455 5449 5446 5442 5443 5441 5438 5438 5437 5437 5435 5432 5433 5435 5437 5441 5444 5447 5450 5452 5455 5457 5460 5461 5465 5467 5471 5477 5480 5483 5486 5490 5490 5490 5489 5486
5513 5506 5496 5488 5482 5476 5470 5463 5457 5455 5454 5455 5455 5453 5450 5449 5449 5448 5446 5443 5440 5443 5444 5446 5449 5452 5457 5463 5465 5465 5466 5469 5471 5474 5478 5480 5484 5485 5486 5485 5483 5481 5481
5513 5506 5501 5495 5487 5482 5477 5474 5469 5465 5461 5459 5457 5454 5455 5455 5458 5457 5455 5452 5450 5452 5452 5455 5461 5464 5468 5471 5473 5474 5474 5474 5475 5477 5477 5478 5480 5482 5482 5481 5480 5479 5477
5519 5510 5505 5501 5496 5490 5489 5485 5480 5478 5473 5468 5467 5462 5458 5460 5462 5462 5464 5463 5465 5466 5465 5469 5475 5478 5481 5480 5481 5481 5482 5482 5482 5482 5482 5483 5483 5483 5482 5480 5476 5472 5469
5520 5515 5510 5504 5501 5498 5493 5493 5490 5479 5478 5476 5473 5470 5467 5470 5469 5471 5471 5469 5469 5469 5475 5478 5481 5485 5486 5488 5489 5490 5491 5491 5491 5487 5486 5485 5483 5481 5476 5470 5464 5460 5457
5524 5517 5515 5514 5511 5507 5501 5500 5498 5493 5486 5480 5473 5473 5471 5472 5473 5473 5472 5469 5470 5470 5478 5482 5484 5485 5486 5489 5493 5494 5494 5492 5492 5489 5486 5483 5479 5473 5467 5462 5456 5447 5437
5528 5521 5517 5515 5514 5510 5511 5507 5505 5501 5500 5500 5493 5477 5478 5473 5470 5469 5470 5478 5482 5485 5484 5483 5484 5486 5489 5491 5493 5493 5492 5491 5490 5485 5481 5476 5468 5462 5455 5448 5441 5428 5420
5535 5528 5524 5522 5518 5514 5512 5511 5509 5506 5504 5506 5506 5499 5490 5474 5473 5474 5475 5479 5484 5488 5491 5493 5491 5488 5488 5490 5491 5490 5490 5490 5482 5476 5471 5465 5456 5448 5439 5430 5423 5416 5408
5537 5532 5525 5522 5520 5518 5518 5516 5514 5513 5511 5512 5513 5515 5506 5499 5495 5491 5489 5486 5487 5489 5491 5492 5493 5493 5492 5490 5492 5487 5481 5473 5466 5462 5458 5449 5442 5433 5426 5417 5408 5400 5392
5530 5525 5523 5521 5516 5516 5518 5516 5514 5514 5513 5512 5515 5518 5501 5507 5505 5501 5498 5497 5496 5496 5495 5494 5494 5493 5496 5489 5483 5476 5471 5464 5457 5450 5443 5435 5426 5419 5411 5402 5395 5387 5380
5511 5522 5524 5525 5519 5511 5513 5514 5515 5516 5512 5512 5512 5513 5503 5505 5508 5506 5507 5508 5504 5501 5498 5495 5497 5492 5480 5474 5469 5463 5457 5449 5442 5436 5429 5421 5413 5405 5396 5388 5383 5377 5370
5488 5503 5508 5505 5502 5509 5509 5510 5507 5502 5501 5504 5511 5510 5512 5505 5506 5507 5507 5507 5500 5499 5496 5487 5483 5479 5468 5460 5455 5449 5441 5432 5429 5422 5413 5406 5399 5392 5385 5377 5371 5368 5364
5471 5472 5469 5470 5482 5498 5498 5497 5495 5493 5498 5495 5493 5505 5506 5500 5507 5506 5501 5494 5488 5475 5473 5469 5460 5454 5452 5445 5440 5433 5425 5419 5412 5405 5399 5393 5386 5381 5375 5370 5364 5360 5359
5449 5446 5447 5448 5454 5458 5464 5469 5475 5477 5481 5478 5473 5471 5481 5488 5487 5486 5480 5478 5470 5459 5457 5452 5449 5437 5433 5424 5418 5415 5410 5403 5397 5390 5384 5379 5375 5370 5366 5361 5356 5354 5352